TimePDT,TemperatureF,Dew PointF,Humidity,Sea Level PressureIn,VisibilityMPH,Wind Direction,Wind SpeedMPH,Gust SpeedMPH,PrecipitationIn,Events,Conditions,WindDirDegrees,DateUTC
12:52 AM,57.0,50.0,77,29.88,10.0,NNE,6.9,-,N/A,,Clear,30,2013-06-23 07:52:00
1:52 AM,55.9,48.9,77,29.88,10.0,North,8.1,-,N/A,,Clear,10,2013-06-23 08:52:00
2:52 AM,55.0,48.9,80,29.87,10.0,North,6.9,-,N/A,,Clear,360,2013-06-23 09:52:00
3:52 AM,54.0,48.9,83,29.86,10.0,North,8.1,-,N/A,,Clear,10,2013-06-23 10:52:00
4:52 AM,53.1,48.9,86,29.85,10.0,North,9.2,-,N/A,,Clear,360,2013-06-23 11:52:00
5:52 AM,54.0,48.9,83,29.84,10.0,North,9.2,-,N/A,,Clear,360,2013-06-23 12:52:00
6:52 AM,57.9,48.9,72,29.84,10.0,NNE,6.9,-,N/A,,Clear,20,2013-06-23 13:52:00
7:52 AM,63.0,51.1,65,29.83,10.0,NNE,4.6,-,N/A,,Clear,30,2013-06-23 14:52:00
8:52 AM,68.0,51.1,55,29.82,10.0,Calm,Calm,-,N/A,,Clear,0,2013-06-23 15:52:00
9:52 AM,71.1,51.1,49,29.80,10.0,Calm,Calm,-,N/A,,Clear,0,2013-06-23 16:52:00
10:52 AM,75.0,50.0,41,29.78,10.0,Variable,3.5,-,N/A,,Clear,0,2013-06-23 17:52:00
11:52 AM,75.9,46.9,36,29.76,10.0,Variable,4.6,-,N/A,,Clear,0,2013-06-23 18:52:00
12:52 PM,77.0,45.0,32,29.74,10.0,ENE,4.6,-,N/A,,Clear,70,2013-06-23 19:52:00
1:52 PM,77.0,48.0,36,29.72,10.0,SSW,8.1,-,N/A,,Overcast,210,2013-06-23 20:52:00
2:52 PM,75.9,48.9,38,29.71,10.0,WSW,8.1,-,N/A,,Overcast,250,2013-06-23 21:52:00
3:52 PM,75.0,50.0,41,29.69,10.0,WSW,9.2,-,0.00,,Overcast,240,2013-06-23 22:52:00
4:52 PM,75.0,50.0,41,29.67,10.0,WNW,4.6,-,N/A,,Overcast,300,2013-06-23 23:52:00
5:52 PM,75.0,50.0,41,29.65,10.0,WSW,6.9,-,N/A,,Scattered Clouds,240,2013-06-24 00:52:00
6:52 PM,75.0,50.0,41,29.64,10.0,SW,6.9,-,N/A,,Overcast,220,2013-06-24 01:52:00
7:52 PM,73.0,50.0,44,29.63,10.0,WSW,6.9,-,N/A,,Mostly Cloudy,250,2013-06-24 02:52:00
8:52 PM,70.0,54.0,57,29.62,10.0,WSW,6.9,-,0.00,,Overcast,250,2013-06-24 03:52:00
9:52 PM,68.0,55.0,63,29.63,10.0,West,9.2,-,0.00,Rain,Light Rain,260,2013-06-24 04:52:00
10:52 PM,63.0,57.0,81,29.64,10.0,WSW,8.1,-,0.04,Rain,Light Rain,250,2013-06-24 05:52:00
11:52 PM,62.1,57.0,84,29.64,10.0,West,4.6,-,0.01,Rain,Light Rain,260,2013-06-24 06:52:00